Location: Unspecified
(0.0000°N, 0.0000°E)
Time: 22:13:39
(UTC+00:00)

PAYLOAD G - Pass Details

Date: 07 August 2024
Orbit: 808 x 820 km, 98.7° (Epoch: 12 September)

Event Time Altitude Azimuth Distance (km) Brightness Sun altitude
Rises 04:41:12 0° 51° (NE) 3,340 ? -20.3°
Reaches altitude 10° 04:45:08 10° 80° (E) 2,410 ? -19.3°
Maximum altitude 04:47:11 12° 103° (ESE) 2,254 ? -18.8°
Drops below altitude 10° 04:49:15 10° 126° (SE) 2,411 ? -18.3°
Sets 04:53:09 0° 155° (SSE) 3,344 ? -17.4°
